Montana Department of Transportation

Main Content

Accidents and Incidents Report

Hourly Weather Roundup

ASUS45 KTFX 290319
RWRMT 
MONTANA HOURLY WEATHER ROUNDUP
NATIONAL WEATHER SERVICE GREAT FALLS MT
919 PM MDT THU AUG 28 2014

NOTE: "FAIR" INDICATES FEW OR NO CLOUDS BELOW 12000 FEET WITH NO
SIGNIFICANT WEATHER AND/OR OBSTRUCTIONS TO VISIBILITY.

* THESE STATIONS ARE NOT UNDER NWS QUALITY CONTROL. THEY DO NOT
   REPORT WEATHER SUCH AS PRECIPITATION OR FOG.

MTZ001.007-043-290400-
WEST OF THE DIVIDE
CITY           SKY/WX    TMP DP  RH WIND       PRES   REMARKS
KALISPELL      PTCLDY    68  43  40 SW6       29.95R 
MISSOULA       CLOUDY    73  39  29 N6        29.99R 
BUTTE          PTCLDY    72  34  25 NW12      30.10R 
MULLAN PASS    MOCLDY    55  36  49 VRB7      30.14S 
* LINCOLN      N/A       71  34  26 SW3G12     N/A   
* LOOKOUT PASS N/A       61  39  44 E4         N/A   
* POLSON       N/A       69  39  34 S2         N/A   
* RONAN APT    CLOUDY    73  43  34 N/A        N/A   
* SEELEY LAKE  N/A       72  39  30 NW4G9      N/A   
* THOMP F APT  PTCLDY    57  46  67 N12G32     N/A   
--------------------------------

MTZ008-052.055-290400-
SOUTHWEST MONTANA
CITY           SKY/WX    TMP DP  RH WIND       PRES   REMARKS
BOZEMAN        MOCLDY    68  48  49 N10       29.98R 
DILLON         MOCLDY    73  43  34 S3        30.04R 
W YELLOWSTONE  CLOUDY    54  46  74 S12G21    30.24R 
* THREE FORKS  MOCLDY    75  61  62 N/A        N/A   
* BOULDER HILL N/A       65  31  28 NW2        N/A   
* MONIDA PASS  N/A       52  48  86 SE13       N/A   
* RAYNOLDS PAS N/A       57  38  49 S17G28     N/A   
* WHITEHALL    N/A       72  43  35 NW7        N/A   
* WISE RIVER   N/A       68  37  32 W7G20      N/A   
--------------------------------

MTZ009.010-012-014-046-048-049-054-290400-
EAST SLOPES AND CENTRAL MONTANA
CITY           SKY/WX    TMP DP  RH WIND       PRES   REMARKS
CUT BANK       CLOUDY    54  48  80 N22G29    30.08R 
GREAT FALLS    CLOUDY    72  45  38 W6        29.95R 
HELENA         MOCLDY    73  39  29 W8        29.98R 
MALMSTROM AFB  CLOUDY    73  50  44 NW3       29.97R 
* CONRAD       MOCLDY    57  55  93 NW14G20    N/A   
* EAST GLACIER N/A       48  46  93 NE21G29    N/A   
* MONARCH      N/A       69  30  23 W12        N/A   
* PENDROY      N/A       54  52  93 VRB21G30    N/A   
* ROGERS PASS  N/A       61  35  38 NW2        N/A   
* SAINT MARY   N/A       49  48  96 N8G19      N/A   
* SWEET GRASS  N/A       50  50 100 N20G29     N/A   
* WHITE SULPH  N/A       65  40  40 W2G7       N/A   
--------------------------------

MTZ011-013-016-021-035-040-045-047-050-051-290400-
NORTH CENTRAL MONTANA
CITY           SKY/WX    TMP DP  RH WIND       PRES   REMARKS
HAVRE          CLOUDY    63  50  63 N25G40    29.94R 
LEWISTOWN      PTCLDY    70  48  46 S7        29.94R 
* CHINOOK      CLOUDY    61  54  78 N23G32    29.93R 
* FORT BENTON  CLOUDY    63  50  63 N23G29    29.94R 
* CHESTER      N/A       56  50  80 NE16G27    N/A   
* DENTON       N/A       70  37  30 SW9        N/A   
* GEYSER       N/A       68  34  28 W12        N/A   
* JUDITH GAP   N/A       72  41  33 NW12       N/A   
* LOMA         N/A       63  51  65 N37G47     N/A   
--------------------------------

MTZ017.020-022.027-061-062-290400-
NORTHEAST MONTANA
CITY           SKY/WX    TMP DP  RH WIND       PRES   REMARKS
GLASGOW        CLEAR     70  57  64 NE9       29.82R 
GLENDIVE       CLEAR     72  54  53 NW10      29.85R 
JORDAN         CLEAR     70  55  59 E3        29.84S 
SIDNEY         CLEAR     70  54  57 W10       29.81R 
WOLF POINT     CLEAR     72  52  49 NW6       29.81R 
* BEAVER HILL  N/A       74  52  46 N/A        N/A   
* CIRCLE       N/A       74  55  52 N/A        N/A   
* LINDSAY DVD  N/A       67  52  59 NW8        N/A   
* NAVAJO       N/A       69  56  63 NW11       N/A   
--------------------------------

MTZ028.042-056.058-290400-
SOUTHCENTRAL AND SOUTHEAST MONTANA
CITY           SKY/WX    TMP DP  RH WIND       PRES   REMARKS
BAKER          PTCLDY    64  55  73 S3        29.88R 
BILLINGS       PTCLDY81  43  26 SE8       29.90S 
LIVINGSTON     TSTM      75  45  34 SW10      29.98R 
MILES CITY     CLEAR     73  48  41 NW7       29.85S 
* LAUREL APT   PTCLDY    73  45  37 N/A        N/A   
* ROUNDUP APT  PTCLDY    73  45  37 N/A        N/A   
* ALZADA       N/A       69  50  51 NE4        N/A   
* HYSHAM       N/A       71  42  35 E2         N/A   
* LAME DEER    N/A       70  44  39 NE5        N/A   
* REED POINT   N/A       69  53  57 W2         N/A   
* ROSCOE HILL  N/A       70  34  27 S9         N/A   
--------------------------------

REGIONAL REPORTS...DAKOTAS
CITY           SKY/WX    TMP DP  RH WIND       PRES   REMARKS
WILLISTON      CLEAR     73  52  48 W10       29.78R 
DICKINSON      CLEAR     66  57  73 S9        29.83R 
BEACH          N/A       63  59  87 S3        29.86R 
CROSBY         CLEAR     66  57  73 NW9       29.77R 
TIOGA          PTCLDY    64  61  90 SW3       29.81S 
WATFORD CITY   CLEAR     68  54  61 SW6       29.77S 
BISMARCK       MOCLDY    64  63  97 SE3       29.85S 
GRAND FORKS    CLOUDY    70  64  81 S9        29.86R 
FARGO          CLOUDY    66  64  93 SE9       29.86F 
BUFFALO SD     PTCLDY    66  57  73 S9        29.84R 
RAPID CITY     MOCLDY    64  61  90 CALM      29.94R 
--------------------------------

REGIONAL REPORTS...WYOMING/IDAHO/WASHINGTON
CITY           SKY/WX    TMP DP  RH WIND       PRES   REMARKS
GILLETTE       CLEAR     57  54  90 SW5       29.99R 
SHERIDAN       CLEAR     61  48  62 S5        29.96R 
CODY           PTCLDY    70  45  41 S12       30.01S 
YELLOWSTONE LA PTCLDY    55  45  69 CALM      30.28S 
SALMON         PTCLDY    73  43  34 E8        29.98R 
MULLAN PASS    MOCLDY    55  36  49 VRB7      30.14S 
SAND POINT     PTCLDY   N/A N/A N/A N/A        N/A   
SPOKANE        FAIR      75  39  27 S10       29.95R 
--------------------------------

REGIONAL REPORTS...ALBERTA
CITY           SKY/WX    TMP DP  RH WIND       PRES   REMARKS
CALGARY        FAIR      50  46  86 S6        30.08R 
LETHBRIDGE     LGT RAIN  52  50  93 VRB2      30.10R 
MEDICINE HAT   LGT RAIN  55  52  90 CALM      30.04R 
EDMONTON       FAIR      54  41  62 CALM      29.98S 
WATERTON GATE  N/A       48  46  93 S3         N/A   
CARDSTON       N/A       48  48 100 NW2        N/A   
MILK RIVER     N/A       50  50 100 N10G17     N/A   
--------------------------------

REGIONAL REPORTS...SASKATCHEWAN
CITY           SKY/WX    TMP DP  RH WIND       PRES   REMARKS
SWIFT CURRENT  LGT RAIN  55  54  96 N15       29.97R 
REGINA         MOCLDY    66  55  68 N9        29.83R 
VAL MARIE      N/A       64  57  78 N14        N/A   
ASSINIBOIA     N/A       64  54  70 NE7        N/A   
CORONACH       N/A       66  57  73 N10        N/A   

--------------------------------